RH
75 71 72 79 84 88 91 96 97 97 101 99 98 100 99 100 96 94 88 81 91 93 78 73 76 79 84 86 88 89 86 82 82 84 86 87 86 87 87 83 80 84 85 81 78 74 76 82 83 84 85 81 79 78 84 92 87 82 82 80 79 79 80 83 83 84 92 99 100 100 99 98 99 99 99 99 99 97 98 98 94 94 96 92 89
71 76 80 82 83 89 95 100 100 99 101 97 97 99 99 99 91 86 84 79 85 86 72 68 66 63 69 75 77 78 75 73 76 80 83 86 88 87 85 83 81 83 85 82 80 79 81 86 85 85 84 83 83 80 85 93 89 84 81 80 81 79 80 85 87 88 95 100 99 100 101 99 100 100 99 100 100 98 98 99 97 95 96 92 89
74 79 86 86 83 90 98 100 99 99 100 96 96 99 100 98 88 81 80 79 82 81 69 63 58 51 57 68 73 76 77 76 78 82 86 87 89 87 85 85 82 83 86 84 83 82 82 84 83 84 84 82 84 83 89 94 89 83 79 80 85 86 88 90 89 88 93 100 100 98 99 99 100 100 100 100 100 99 97 98 98 96 96 95 93
76 79 86 89 86 91 98 99 100 100 97 95 98 100 99 97 91 84 79 78 79 75 65 57 56 62 71 79 85 89 92 92 91 92 93 92 91 91 89 88 85 85 85 85 86 84 83 83 80 83 83 80 81 82 88 91 86 82 79 79 82 89 97 97 92 88 85 89 95 99 97 96 99 100 100 100 99 99 99 97 97 97 98 96 95
75 81 86 93 92 93 100 99 100 100 89 88 99 101 99 96 90 85 77 74 76 70 63 59 64 77 83 89 95 98 99 98 98 98 97 95 93 92 90 88 87 85 84 86 87 85 86 84 79 81 83 80 81 82 86 87 84 81 78 78 79 81 91 96 93 89 81 76 80 90 95 96 100 100 98 100 100 99 100 99 98 98 96 93 95
79 85 89 96 96 97 101 98 101 101 82 82 100 100 99 95 86 81 72 68 73 71 69 73 79 87 89 92 98 100 99 100 100 100 99 97 93 91 89 89 88 85 85 87 85 86 88 84 78 81 82 80 81 84 87 87 86 84 79 79 80 76 80 91 94 89 84 77 71 76 84 87 93 98 98 99 100 100 99 100 99 96 94 94 95
86 90 93 97 97 99 100 98 102 92 73 83 102 99 99 94 82 79 71 64 70 74 77 83 88 93 92 90 94 98 100 100 100 100 100 96 92 93 90 89 90 86 85 87 84 86 87 82 78 81 83 81 81 84 86 86 87 88 84 80 79 76 77 86 91 89 87 83 76 75 76 75 80 90 96 98 100 100 99 99 100 98 97 96 94
91 94 96 97 98 100 99 100 96 76 71 91 102 98 100 96 85 83 78 68 69 75 77 80 87 93 92 90 92 95 97 99 100 100 100 95 91 93 91 89 90 86 84 85 83 85 86 82 82 84 86 84 81 82 85 85 86 87 86 82 78 77 76 77 82 87 87 83 80 79 76 75 78 81 85 91 95 99 100 99 99 100 97 95 94
95 95 96 98 99 100 99 99 88 74 83 94 94 97 100 98 94 94 91 80 76 79 78 77 83 87 88 90 92 94 95 96 99 99 100 97 91 91 91 89 87 86 84 83 84 84 84 83 83 85 86 84 82 84 86 84 81 82 84 83 79 77 76 74 76 82 82 77 79 82 80 81 82 79 81 85 90 97 100 99 100 100 98 96 96
99 97 97 99 100 100 100 98 89 83 86 83 83 93 95 95 98 99 99 94 90 90 88 86 85 84 87 91 93 96 96 94 96 98 99 99 95 92 92 89 85 85 84 82 82 81 82 82 81 82 84 83 84 88 88 84 81 83 83 80 78 76 76 76 73 75 77 74 76 80 81 84 85 85 86 85 86 93 96 98 100 99 98 97 96
97 98 97 99 100 100 100 98 93 85 77 72 79 88 85 85 92 97 99 99 99 99 97 95 90 86 86 89 92 95 95 94 95 96 99 100 99 95 90 86 84 84 83 82 80 77 81 84 80 81 83 83 86 89 88 85 84 85 82 79 79 77 75 77 73 72 75 74 76 77 75 75 78 83 85 83 85 92 97 99 98 96 95 94 95
94 95 96 98 99 100 100 98 95 84 74 75 82 86 82 76 79 88 94 97 100 100 99 99 95 89 85 85 90 93 95 95 92 92 94 94 95 93 87 84 84 83 82 81 78 77 82 86 83 83 84 84 86 86 83 82 82 81 80 79 80 77 75 76 76 75 76 76 78 78 73 71 72 75 78 78 78 84 93 99 97 94 93 92 93
94 95 96 98 99 99 100 100 98 91 86 88 88 86 83 76 75 83 91 97 100 99 99 100 97 90 86 85 88 92 97 95 90 87 86 85 88 90 86 83 83 82 80 78 77 79 83 85 85 84 83 85 85 82 79 79 79 79 79 79 79 78 76 76 76 75 76 77 78 78 76 73 72 72 74 76 74 78 89 97 96 92 91 92 93
96 97 97 98 98 98 99 99 97 94 94 96 93 89 85 83 87 93 96 98 100 99 100 100 95 89 87 88 88 92 98 97 90 84 81 82 82 83 82 80 80 81 78 76 77 79 80 81 83 83 82 82 82 81 80 79 79 79 80 80 80 80 76 75 77 76 76 77 77 78 78 76 75 74 74 75 75 77 85 93 93 90 88 90 90
96 97 98 99 98 97 97 95 94 95 96 96 95 94 92 91 96 99 99 99 98 99 100 99 96 92 91 93 92 92 96 99 95 89 84 80 77 77 78 77 77 78 75 75 76 77 78 79 80 80 81 79 77 79 80 80 81 81 82 82 82 82 78 74 77 78 77 78 77 76 75 74 74 74 73 73 73 73 76 83 88 89 90 89 86
95 96 99 99 98 97 97 96 96 99 99 97 95 94 94 96 97 98 98 98 97 97 100 100 98 97 97 98 97 94 96 99 98 97 91 82 78 77 78 81 79 74 74 75 76 76 76 76 76 75 76 75 76 79 80 81 82 82 84 85 84 84 80 76 78 79 78 78 77 75 74 72 71 72 74 74 73 71 71 75 81 83 89 92 90
95 97 99 98 98 98 97 96 96 96 97 95 92 91 92 94 96 97 98 98 98 98 99 100 98 98 99 100 98 94 93 95 96 98 96 90 86 79 80 85 81 72 72 74 74 74 73 73 73 73 72 71 74 77 78 80 82 83 84 84 85 86 83 81 80 80 81 80 77 75 75 74 73 74 77 76 75 74 71 72 76 76 80 88 93
94 96 97 96 98 99 97 95 93 93 95 92 88 88 90 91 93 97 98 99 100 99 99 100 99 99 99 99 97 91 89 93 97 99 96 90 86 82 82 83 78 73 71 71 72 72 71 71 71 71 71 69 71 72 75 79 80 81 81 81 83 85 86 87 83 82 84 83 80 79 78 78 78 77 76 77 78 76 72 71 73 73 76 81 86
93 93 95 95 97 99 99 98 96 95 97 94 91 93 95 94 94 96 97 96 98 99 99 100 98 98 98 94 92 93 93 95 96 98 93 84 80 81 83 84 80 76 71 69 71 71 69 70 69 69 70 70 71 70 72 75 75 78 80 79 80 81 85 87 85 86 88 86 83 83 83 81 78 76 77 79 79 76 73 72 71 71 73 75 75
94 91 92 93 94 96 97 98 99 98 96 94 94 97 99 98 96 97 96 92 93 96 98 99 97 96 97 94 92 94 97 96 93 93 90 84 83 80 83 90 86 75 70 69 69 69 69 69 68 69 68 69 71 70 70 71 72 76 78 77 77 79 84 84 83 88 91 88 86 85 85 81 75 76 78 77 75 73 71 70 69 69 68 69 70
92 90 89 89 90 92 92 93 96 97 96 94 94 97 98 98 97 96 95 91 89 91 94 97 97 97 99 99 97 96 97 96 93 93 89 84 84 81 83 91 83 71 70 69 66 66 67 67 68 69 69 69 70 69 70 70 71 74 75 74 76 78 83 83 83 89 90 88 87 86 85 80 74 74 75 74 72 69 68 68 67 66 64 64 64
88 87 87 86 87 88 88 89 91 93 96 97 97 98 97 97 96 96 96 94 91 93 96 98 99 100 99 99 100 98 97 95 92 94 91 81 79 82 84 84 75 67 67 65 63 65 64 65 68 68 68 69 68 68 70 69 70 71 71 72 75 77 80 80 80 84 84 85 87 87 85 79 75 77 76 72 70 67 65 65 64 64 64 60 58
83 84 84 84 84 85 85 87 88 90 93 95 98 100 99 96 93 93 97 97 95 95 97 99 99 100 99 97 98 99 95 93 92 92 91 81 76 82 85 77 66 63 64 63 63 62 62 65 67 66 66 66 66 66 67 67 68 69 70 72 73 74 76 77 78 80 81 83 85 83 81 77 76 79 77 71 67 66 64 63 63 63 62 58 54
81 82 82 82 83 85 86 88 88 89 91 92 96 99 100 100 96 94 97 98 98 98 98 98 98 100 100 96 97 99 95 94 92 87 85 81 75 80 82 71 63 63 62 62 61 58 60 65 64 63 64 64 64 63 63 65 66 66 67 68 69 72 74 74 76 78 81 83 81 76 74 74 75 77 75 70 67 64 60 58 58 58 57 55 50
84 83 83 83 85 86 87 88 88 89 90 92 95 96 98 100 99 98 99 95 90 87 87 92 97 99 101 97 96 99 97 94 92 85 81 77 73 77 77 67 62 64 62 61 60 56 59 63 62 61 62 60 60 61 61 62 62 61 61 61 65 69 72 73 74 76 78 79 76 72 71 73 73 71 68 63 58 54 49 47 50 51 53 52 48
85 84 85 85 85 85 85 87 88 89 91 93 95 96 97 98 99 99 100 95 88 80 80 91 99 100 100 97 95 99 98 94 90 82 77 75 75 77 72 64 63 63 61 61 60 55 56 59 60 60 59 57 57 58 57 57 56 56 58 61 66 69 72 73 72 72 75 76 73 70 70 72 69 64 60 54 48 45 42 41 44 47 51 50 46
85 85 85 83 83 84 84 86 89 90 92 94 96 96 97 99 99 99 99 98 97 91 89 95 100 99 99 97 96 99 98 92 86 79 76 78 80 77 67 61 63 62 60 61 59 55 54 56 59 59 57 56 55 54 53 53 53 53 57 63 68 71 72 71 70 73 77 79 80 75 68 64 60 55 52 47 42 41 40 39 42 46 49 48 44
87 87 86 83 82 83 84 86 89 91 92 93 95 97 98 99 100 99 99 99 100 99 98 98 99 100 99 98 98 98 93 88 83 78 76 77 78 74 64 60 62 62 59 60 59 55 53 53 56 57 55 53 53 51 49 50 51 52 56 61 64 67 70 70 70 73 72 72 77 75 63 56 55 53 51 48 45 43 41 40 42 45 45 44 42
90 90 89 86 82 81 83 85 88 91 92 92 94 97 98 100 100 99 99 99 99 100 100 99 100 100 98 98 98 96 90 87 86 80 75 75 76 71 63 61 62 61 59 58 56 52 51 52 54 54 53 51 50 48 47 49 52 53 55 57 58 63 69 70 71 73 71 68 69 67 59 55 55 54 53 52 50 47 44 42 43 44 44 44 45
90 91 90 88 82 79 81 84 87 90 91 91 94 97 98 100 100 99 99 99 99 100 99 100 101 99 98 98 97 94 91 90 88 84 78 78 76 68 60 60 61 59 59 57 52 50 50 52 53 53 52 50 48 47 48 50 52 54 55 55 57 60 64 68 71 74 74 69 64 60 58 57 56 55 55 55 54 52 49 47 47 47 47 48 49
90 90 89 86 81 77 79 84 86 88 91 91 93 96 99 100 100 100 100 100 99 99 99 99 100 99 99 99 96 95 95 92 87 85 81 77 70 62 57 58 58 58 58 55 50 50 51 52 52 52 50 50 49 49 49 50 50 51 51 52 56 59 60 62 67 70 67 61 58 56 55 54 53 52 50 49 49 49 49 50 52 52 52 52 51
92 92 91 87 81 79 80 83 85 86 88 90 92 94 97 99 100 100 99 99 100 100 99 99 100 100 99 99 97 95 95 93 89 85 81 72 61 57 59 58 57 57 56 53 51 51 51 51 51 51 51 52 52 52 52 52 51 50 49 49 52 56 59 61 64 64 61 57 56 56 54 52 50 46 44 43 42 42 43 46 48 49 50 51 50
93 94 92 86 82 81 81 82 83 83 84 86 89 92 94 96 98 98 97 98 99 100 100 100 100 100 99 98 96 92 89 88 84 79 79 74 61 56 59 58 56 56 54 52 53 52 52 53 51 51 51 51 50 50 50 52 53 51 49 48 50 52 57 61 60 58 56 54 53 51 49 49 48 46 45 45 45 46 48 49 50 51 53 56 57
94 95 92 87 84 82 81 79 79 79 81 83 85 88 91 92 93 95 96 98 100 99 100 100 99 100 100 98 95 91 88 86 83 78 79 78 68 61 61 59 57 56 54 55 55 54 54 53 51 51 51 48 47 45 44 46 50 52 52 51 51 52 54 57 56 52 51 50 49 48 48 52 55 55 55 55 53 53 56 59 62 64 66 68 69
96 96 94 90 84 82 80 77 75 76 78 80 82 85 88 88 88 92 94 97 100 100 99 100 100 99 100 99 95 91 88 86 84 79 76 77 73 68 67 64 59 56 55 54 53 52 52 52 50 50 48 46 45 44 45 44 42 44 49 51 53 55 55 57 58 57 57 57 56 56 56 58 60 59 60 62 62 61 61 63 68 73 75 75 74
97 96 95 91 84 80 78 75 73 74 76 78 80 83 85 86 86 88 91 93 96 99 100 100 100 98 100 99 96 92 89 87 86 82 78 79 78 75 74 67 59 57 55 51 49 49 49 48 49 47 46 46 46 47 51 52 46 42 44 48 54 58 58 59 61 61 63 63 63 62 61 62 63 62 62 67 71 73 72 72 76 79 80 78 77
94 92 91 87 80 76 75 74 72 71 73 76 78 79 81 83 84 85 88 89 91 95 98 100 99 99 99 100 98 95 92 91 90 87 85 83 79 76 76 70 63 64 63 57 54 54 52 50 49 48 47 49 51 54 57 61 59 53 50 51 57 62 63 65 67 68 68 69 70 70 69 69 71 70 71 73 75 76 78 78 79 78 76 76 77
91 90 88 84 80 77 73 71 70 69 71 73 75 77 78 80 82 85 85 86 88 91 93 97 100 100 99 99 100 98 96 93 92 90 87 82 74 72 73 69 65 67 70 68 65 63 62 59 57 55 55 55 61 66 66 67 67 63 56 56 59 64 71 76 79 81 81 80 80 79 75 75 74 73 71 69 67 66 65 64 63 62 62 64 64
87 88 88 84 82 79 72 68 69 69 69 71 72 73 75 79 82 82 82 85 87 87 88 92 96 99 99 97 97 99 99 96 93 90 84 76 71 72 72 70 67 69 73 72 68 65 66 65 64 65 64 62 67 73 72 71 72 67 61 57 57 64 75 82 84 85 84 82 81 78 74 71 68 63 58 54 52 50 46 43 43 43 44 46 46
85 85 86 84 82 79 75 72 71 70 69 69 69 69 72 77 79 79 82 85 82 81 82 85 89 94 97 96 93 96 100 98 94 90 85 80 76 72 70 72 73 73 72 70 66 64 62 60 60 61 62 62 66 70 73 75 74 71 68 65 62 67 77 82 80 78 75 71 68 65 58 50 45 42 38 34 33 32 30 30 31 32 35 40 40
85 83 82 81 79 79 79 77 73 70 69 68 68 68 70 72 72 74 78 79 76 74 75 78 81 85 90 94 94 95 99 100 97 93 89 86 83 77 74 76 77 75 73 70 67 64 59 55 53 53 53 55 57 61 67 74 75 75 73 70 71 74 77 76 71 65 61 55 49 45 39 32 30 29 27 27 29 30 33 36 39 42 49 53 51
81 80 78 77 76 75 76 75 73 72 71 69 67 68 70 70 70 71 69 66 65 67 68 72 76 78 80 86 90 93 95 97 96 93 91 91 91 87 84 83 82 80 75 70 66 64 62 59 57 54 51 50 49 50 54 62 71 79 82 80 80 78 75 72 66 56 48 42 37 34 30 29 31 31 34 39 43 46 49 52 55 60 64 65 65
76 76 75 74 73 72 71 72 71 70 71 71 69 69 70 70 71 69 64 58 57 57 56 60 67 72 75 77 80 84 87 89 91 91 91 93 94 93 90 86 81 75 69 66 67 68 66 61 58 57 55 52 47 44 42 44 51 63 76 83 83 76 72 70 64 52 43 38 34 32 34 38 43 47 51 55 56 56 58 61 65 68 68 68 70
76 75 74 74 73 72 70 69 69 68 69 70 71 70 70 69 68 65 61 59 59 56 52 50 53 60 66 68 71 75 77 80 84 85 86 87 87 86 85 80 72 65 64 68 70 66 61 57 56 57 57 52 46 43 41 40 39 41 49 58 63 62 62 61 55 48 44 39 34 34 40 48 53 56 57 57 56 58 60 63 65 65 64 64 63
78 76 76 75 74 73 72 70 70 70 69 68 68 67 66 66 65 62 60 59 60 60 59 56 51 48 48 49 53 59 64 69 73 75 78 81 81 81 81 76 69 65 67 71 71 68 65 62 59 56 53 49 46 44 42 39 37 36 39 46 51 53 56 55 53 51 48 39 33 37 45 51 54 54 54 55 58 60 61 60 59 57 56 56 55
78 78 76 74 74 73 71 70 70 70 70 69 69 66 63 61 60 61 61 59 58 59 62 62 59 54 48 40 36 39 45 53 61 65 69 73 75 78 80 80 77 74 72 74 75 74 69 63 57 53 49 46 43 41 37 33 32 34 41 48 51 50 50 50 49 49 46 40 38 44 49 52 53 53 54 57 60 61 58 56 55 55 55 55 54
77 77 76 74 74 73 72 72 70 67 64 65 67 66 62 58 57 60 61 60 59 60 62 62 62 60 57 50 41 34 34 38 45 53 59 64 67 70 73 77 80 78 76 76 77 73 65 59 55 50 45 41 39 36 35 34 35 38 42 45 44 42 40 40 40 42 45 47 48 52 53 52 53 54 55 59 61 61 59 59 60 60 60 59 58
75 74 74 74 74 73 73 72 71 67 62 59 61 64 63 60 59 60 62 62 61 62 63 64 64 62 60 57 52 45 38 35 35 40 47 53 58 62 64 69 75 79 78 77 76 72 65 59 55 47 40 38 37 36 38 42 47 52 52 49 45 43 42 43 45 50 54 55 54 54 53 52 52 53 55 58 60 62 64 65 65 65 64 62 61
73 72 73 73 73 72 70 68 68 68 65 60 58 59 62 62 60 59 61 62 62 63 63 63 63 63 61 60 58 54 49 42 37 38 43 50 55 58 60 63 67 72 75 75 73 69 63 56 51 45 39 37 39 43 48 53 57 60 60 55 53 52 51 52 55 56 55 54 54 54 54 54 55 56 59 61 63 64 66 67 68 68 67 66 64
72 72 71 71 70 68 65 64 63 63 63 62 59 57 60 63 62 60 59 59 59 60 61 61 62 63 62 61 61 60 57 52 44 40 44 52 58 62 63 63 63 64 65 65 64 61 58 53 48 46 45 44 46 50 54 56 60 63 63 61 59 58 58 58 58 56 53 54 57 59 61 63 62 62 65 66 66 67 67 68 68 69 69 69 67
70 70 70 70 68 65 63 61 60 57 58 59 59 59 59 60 60 58 56 56 57 57 58 59 60 61 62 63 63 63 61 59 53 44 41 47 56 64 69 70 68 63 59 55 51 50 52 51 49 51 55 54 52 53 55 57 61 65 65 64 62 61 60 60 57 54 55 58 61 64 69 71 70 70 70 70 70 70 69 69 69 68 70 71 70
Wind_Speed
10 15 19 24 27 27 28 27 26 25 24 26 26 27 25 21 20 18 16 21 27 27 24 24 25 24 23 22 22 22 23 23 23 23 23 23 21 21 23 22 22 22 21 20 19 19 21 21 20 20 19 16 14 13 12 12 12 12 11 13 17 19 18 17 17 18 17 14 11 9 8 6 5 6 7 7 8 8 10 12 12 11 10 9 7
7 9 15 24 26 27 28 28 29 28 28 28 29 29 26 22 21 20 19 25 29 28 26 27 27 25 25 25 25 25 26 26 25 25 24 23 22 22 23 22 22 22 22 21 20 20 21 21 20 21 19 16 14 13 13 14 14 13 13 16 18 20 21 20 21 19 15 12 12 9 7 6 6 6 7 7 7 7 11 13 12 12 11 10 8
6 6 11 20 25 27 27 27 29 30 30 30 29 29 28 25 23 21 20 26 31 30 28 27 26 25 25 26 28 28 27 27 25 24 23 22 22 22 23 22 21 21 21 21 21 20 20 20 20 19 19 17 16 16 16 15 15 14 16 19 20 19 19 23 23 17 14 15 13 6 3 3 4 5 6 6 6 5 8 11 11 11 10 10 10
9 8 9 15 20 21 23 24 26 28 30 30 28 28 28 27 25 23 21 25 32 33 30 27 25 25 24 23 24 24 23 23 22 21 21 20 20 22 23 22 21 21 21 21 21 20 19 18 18 18 18 18 17 18 18 17 15 15 18 20 21 19 19 24 20 14 19 19 9 4 2 1 1 3 6 5 4 4 4 7 9 10 10 11 11
7 5 5 7 12 16 20 24 26 27 28 28 28 30 29 27 25 24 23 26 31 34 33 30 27 26 22 18 18 18 18 20 20 20 19 19 20 22 22 21 21 21 21 21 20 19 18 17 17 18 18 18 18 17 17 17 16 16 18 20 21 20 21 25 18 14 22 19 10 7 4 1 1 4 6 3 3 5 5 6 8 9 9 9 10
6 6 6 9 12 16 19 22 23 23 23 23 25 29 30 28 27 26 25 27 31 34 35 32 29 27 24 21 20 18 19 21 21 20 20 20 21 21 21 20 20 20 20 19 19 19 18 17 17 18 18 19 18 17 17 17 18 16 17 19 22 22 22 24 19 16 21 15 10 10 4 3 7 9 5 1 3 5 5 6 7 7 8 8 9
7 8 8 10 13 15 16 19 22 21 21 21 24 28 30 28 27 28 28 29 31 33 34 33 30 28 26 25 24 22 21 21 21 20 20 21 22 20 21 20 19 19 19 18 18 18 17 16 16 17 18 18 16 17 18 19 19 18 18 19 20 21 23 24 21 19 21 15 10 9 3 4 14 14 7 3 3 3 5 7 6 6 8 10 10
6 7 8 9 12 17 18 21 25 24 15 11 15 20 25 27 28 29 30 30 31 32 32 33 31 28 25 24 23 21 20 20 21 20 19 21 21 20 21 20 18 17 17 17 16 16 16 15 15 16 16 16 15 17 18 19 20 18 19 19 18 19 20 21 22 22 23 17 12 9 4 7 17 15 12 10 5 2 4 5 6 8 9 10 10
7 7 7 8 12 18 20 23 26 22 9 14 11 10 12 16 19 23 27 28 29 31 32 32 30 27 25 23 21 19 19 19 20 21 20 20 20 21 21 20 18 17 16 16 15 15 15 14 14 14 14 13 13 15 16 16 17 16 17 18 17 18 18 18 21 24 23 18 14 10 7 13 14 11 14 14 8 4 3 3 6 8 8 9 9
8 7 7 7 10 15 19 22 24 18 8 9 13 14 13 10 10 14 19 22 22 25 28 29 29 27 25 23 20 19 19 18 19 21 21 21 21 21 21 20 19 18 16 15 14 14 13 12 14 14 13 12 12 13 14 14 14 16 17 17 16 16 17 18 19 22 22 18 15 13 14 17 12 8 13 14 9 6 4 4 7 7 7 9 9
8 8 8 8 10 13 16 19 19 16 13 11 13 17 21 18 11 12 13 14 15 19 22 24 26 27 26 24 21 20 20 19 20 22 23 23 22 21 21 20 19 19 17 15 14 14 13 12 13 14 13 12 12 13 15 14 15 17 16 16 15 15 16 17 17 19 20 16 15 15 16 20 15 11 16 17 12 8 6 6 8 9 9 9 9
8 7 7 8 9 10 13 15 17 18 18 16 10 12 19 24 20 15 15 16 15 18 21 22 23 24 25 25 22 21 20 21 23 25 25 25 23 22 22 20 19 19 18 16 15 15 15 15 14 14 14 13 12 14 15 15 16 16 16 15 15 15 16 16 15 17 17 15 15 14 15 19 18 15 18 20 16 15 13 9 9 12 8 7 10
5 5 5 6 7 10 12 14 17 19 19 16 8 7 13 20 23 23 23 21 17 19 23 23 23 24 25 24 23 21 21 21 24 26 27 26 24 24 23 21 21 20 18 17 16 16 15 16 16 15 15 14 14 14 14 15 16 15 16 16 16 16 15 15 15 16 15 15 15 14 13 15 16 14 17 20 17 18 19 12 10 12 7 7 11
4 3 2 1 2 6 10 14 16 15 13 9 2 2 9 15 18 21 22 21 17 18 23 26 26 26 26 25 23 22 20 21 23 26 27 25 23 23 23 23 22 21 19 18 18 17 16 16 17 16 16 15 15 15 16 16 15 16 17 17 16 15 14 14 14 15 15 15 14 14 13 13 14 14 16 19 18 19 21 18 13 9 7 10 9
5 5 5 4 4 2 2 6 7 3 3 3 2 2 6 12 13 13 15 18 18 18 21 26 28 28 26 24 23 21 19 19 22 24 25 24 22 23 23 23 23 21 19 20 19 18 17 16 16 16 16 16 15 16 17 16 16 17 17 16 15 14 14 14 15 15 15 15 14 14 13 13 14 15 16 19 19 19 23 25 20 10 5 7 6
6 6 6 6 6 5 6 7 7 8 5 4 5 5 3 6 8 7 10 16 19 20 21 23 25 25 21 19 20 19 17 17 20 21 22 22 21 22 21 20 21 21 20 21 20 18 18 17 17 17 17 17 17 17 18 17 17 18 17 15 14 14 14 14 16 17 16 15 14 13 13 14 14 14 16 19 19 19 22 26 26 19 10 5 3
7 6 5 7 7 5 4 5 6 7 6 7 9 9 8 6 5 6 9 12 15 19 21 20 21 21 19 18 19 20 20 20 20 17 16 18 19 20 20 19 19 22 22 23 22 19 19 19 18 18 17 16 16 17 17 17 17 17 15 14 13 13 14 14 15 16 15 13 13 13 13 13 12 13 16 18 17 19 22 24 26 25 18 10 4
9 8 6 6 7 7 5 5 7 7 6 8 11 10 9 7 8 8 7 7 7 11 17 19 21 22 22 21 22 23 24 23 20 12 9 16 20 19 20 20 21 23 24 23 22 21 20 19 18 19 18 17 16 15 15 16 16 15 14 13 12 13 14 14 14 15 14 14 14 13 12 11 11 12 15 17 16 18 22 23 24 24 20 14 8
9 9 8 8 10 11 10 10 11 9 7 7 9 10 7 3 5 6 6 6 6 6 13 18 20 21 22 22 21 22 22 22 21 16 13 18 23 21 20 21 22 23 23 23 22 21 21 20 20 19 17 17 16 15 14 14 14 13 13 13 12 13 13 13 13 13 14 14 14 14 12 11 11 11 14 16 14 17 21 22 23 22 19 16 13
8 8 9 10 14 17 17 17 16 14 12 12 11 10 9 5 2 2 3 3 4 6 10 15 17 19 20 19 20 21 20 20 22 21 18 20 22 21 21 23 25 24 23 23 23 22 22 21 21 20 17 17 16 15 14 14 13 13 13 13 12 13 13 13 13 13 14 15 15 15 13 12 12 12 15 16 14 16 20 22 22 21 19 18 16
8 8 8 10 14 18 20 21 22 21 19 18 16 14 12 10 5 2 1 4 5 7 11 14 16 18 19 18 19 19 19 19 21 21 19 21 22 22 24 27 26 25 25 25 24 23 22 20 20 19 18 17 16 16 15 15 15 14 14 14 12 12 13 13 13 13 14 15 16 15 13 12 14 14 15 15 15 16 18 21 21 18 19 20 19
9 8 8 10 14 17 19 21 23 23 22 21 20 16 13 12 10 7 4 5 6 8 13 15 16 17 18 20 21 20 20 20 20 19 19 22 23 24 26 28 26 26 26 25 23 22 21 19 19 19 19 18 17 17 16 16 16 16 15 14 13 12 12 13 13 13 14 15 16 15 13 13 15 15 14 14 15 16 16 19 21 20 19 19 20
8 8 9 12 14 16 17 20 22 22 22 23 23 21 17 14 14 12 8 6 7 8 9 12 15 17 19 21 22 21 20 19 19 20 20 22 25 26 27 27 27 25 24 24 22 21 20 20 19 19 19 18 17 17 16 16 16 16 16 15 14 13 12 13 14 14 15 16 15 14 14 14 15 14 14 14 16 17 15 16 19 22 21 18 18
8 8 9 11 14 16 17 19 19 20 21 22 23 23 21 18 17 16 13 9 6 6 7 10 14 17 19 20 20 19 18 19 19 20 22 23 26 28 27 27 28 25 24 24 21 18 20 22 20 18 18 18 18 17 16 16 16 15 15 15 14 14 13 14 14 14 15 16 14 14 14 14 14 13 13 14 15 14 13 14 18 20 21 18 17
8 8 8 10 11 14 16 17 18 18 20 21 22 23 23 22 21 18 16 12 8 6 10 15 17 18 19 20 19 18 18 21 21 21 22 24 26 28 27 28 28 25 24 22 19 19 21 22 20 18 18 18 17 17 16 16 15 14 14 14 15 16 15 14 14 14 15 14 13 14 13 12 12 12 12 11 11 11 10 12 16 18 19 18 16
8 8 8 8 10 13 15 17 17 17 18 19 20 22 24 25 23 19 15 13 10 9 13 17 17 18 20 20 20 18 18 22 23 22 23 24 27 28 28 29 28 25 24 22 20 20 21 20 20 19 18 17 17 17 15 15 15 14 13 13 15 17 15 14 14 14 14 13 13 14 13 11 10 9 9 7 7 9 10 12 15 16 18 18 14
7 8 8 10 11 13 15 16 16 17 18 18 18 20 21 23 23 20 16 17 15 13 16 17 17 19 20 20 20 19 19 22 24 25 26 28 30 31 29 29 27 24 24 23 22 21 21 21 20 18 17 17 18 17 15 15 16 14 13 14 16 16 15 14 14 14 14 12 11 12 12 10 9 8 8 8 7 9 10 11 13 14 16 15 13
9 9 10 11 11 12 14 17 18 18 20 21 21 21 21 21 21 18 15 17 18 17 17 18 18 19 19 20 22 20 21 24 27 30 31 30 30 29 28 27 24 24 25 23 22 23 23 22 20 18 17 17 18 18 15 15 15 14 14 14 14 16 16 15 14 14 14 11 9 9 11 12 11 10 11 11 11 11 11 12 12 13 13 13 11
11 10 10 10 10 12 15 17 20 20 21 23 23 23 22 22 22 19 14 12 15 17 17 17 17 16 19 21 21 21 23 25 28 31 31 29 28 27 26 25 23 24 25 23 22 24 23 22 20 19 18 17 18 18 16 14 14 16 17 15 14 16 16 16 16 14 14 14 12 11 13 14 12 11 10 10 10 10 10 12 12 12 12 12 10
11 10 10 10 10 13 16 17 19 21 22 23 24 24 23 23 24 21 16 9 10 13 13 17 17 15 19 21 21 23 25 26 28 29 29 28 27 26 25 24 24 24 23 23 23 23 22 21 21 20 19 18 18 18 17 16 15 16 17 16 16 17 16 17 18 17 18 17 15 14 14 13 12 11 10 9 9 9 8 9 9 9 9 9 10
10 10 10 10 10 13 16 16 18 21 21 22 23 23 22 24 26 24 20 12 4 6 8 16 19 16 18 22 24 25 26 27 29 28 27 26 25 25 25 23 22 22 22 23 24 23 24 23 23 22 20 20 20 19 17 16 15 15 16 17 18 18 18 18 18 18 19 18 17 15 13 12 11 11 11 10 9 8 7 7 7 6 6 6 7
9 9 9 9 10 12 15 16 18 20 22 22 21 22 23 24 25 24 22 17 10 4 3 10 13 13 18 24 27 27 26 27 27 25 24 24 25 27 25 22 23 24 25 26 26 26 27 26 24 24 22 21 20 19 18 16 14 15 16 17 18 19 19 19 19 19 19 17 15 13 12 10 9 9 9 9 9 8 7 5 4 4 4 4 4
8 8 8 9 10 11 14 16 18 20 21 20 20 21 22 23 24 24 23 21 18 13 7 5 7 12 18 25 28 28 28 27 24 21 22 24 27 28 25 25 27 29 29 29 29 29 28 27 26 25 23 22 21 20 19 18 16 15 16 17 19 20 20 21 21 20 18 17 15 14 12 11 10 8 7 6 6 6 5 4 3 2 3 3 2
7 7 8 10 11 13 15 17 18 19 20 20 21 21 22 23 25 27 26 25 24 21 16 11 8 9 14 22 27 26 26 25 24 23 23 24 27 29 29 30 32 32 32 31 30 29 28 26 26 25 23 21 21 20 20 19 18 17 17 18 19 20 20 20 19 18 17 16 16 15 15 13 11 10 8 7 6 5 4 3 2 1 2 2 1
6 7 9 11 13 14 16 17 18 19 20 22 23 22 23 26 28 29 29 28 26 25 23 19 15 11 12 18 24 25 26 27 28 29 29 26 28 31 31 32 34 34 34 32 30 28 26 24 23 22 21 19 18 18 18 18 18 17 18 19 21 22 21 20 18 17 16 15 15 14 14 14 12 11 9 7 7 6 6 5 4 2 1 1 2
6 7 10 12 13 14 14 15 17 19 21 22 23 22 23 26 29 29 29 29 29 29 28 24 20 15 12 14 21 25 28 30 30 32 32 29 30 31 31 33 36 35 34 33 30 27 25 23 21 20 19 18 16 15 16 17 18 17 17 18 20 21 22 21 20 18 16 14 13 13 13 12 10 9 7 5 5 5 5 5 4 3 1 2 3
8 10 11 13 13 13 14 16 17 20 22 21 21 22 25 28 29 29 30 31 32 30 28 27 24 19 15 15 20 24 27 29 30 32 32 32 33 32 31 33 35 33 32 32 30 27 23 21 19 17 17 17 15 13 14 16 17 17 16 18 19 20 21 21 20 18 17 15 13 12 12 10 8 6 5 4 3 2 0 0 1 1 2 2 2
10 11 13 14 14 14 15 18 20 22 22 21 21 23 26 28 28 28 30 32 32 30 28 27 25 22 19 17 19 21 23 27 30 31 31 32 33 32 30 31 32 31 29 29 28 26 23 20 18 17 15 15 14 12 12 14 16 16 15 15 15 17 19 20 19 18 17 16 15 13 11 10 8 6 5 4 3 4 4 4 4 3 3 3 5
12 12 13 14 14 14 16 19 21 21 20 20 21 26 28 27 26 28 31 31 30 29 28 27 25 24 22 20 19 19 20 24 27 28 29 30 30 28 27 27 28 28 27 26 25 25 24 21 19 17 15 15 15 13 11 11 14 15 14 13 13 15 18 20 19 19 18 16 15 14 12 11 10 9 8 7 6 6 5 5 5 5 5 6 8
12 13 13 14 15 16 18 20 19 19 19 19 22 27 28 26 26 29 31 29 28 28 27 27 27 26 25 23 21 19 20 23 25 25 27 27 26 24 22 22 24 24 24 24 24 24 24 22 20 19 17 16 16 15 13 12 13 14 14 15 16 18 20 22 20 20 19 18 16 15 14 12 11 11 9 8 7 7 6 5 5 5 6 8 8
12 12 13 15 16 17 18 19 17 18 19 20 23 27 27 25 28 30 28 26 26 27 28 29 29 29 28 26 24 21 20 22 23 23 24 23 23 21 19 19 22 23 23 24 25 25 26 25 22 21 20 19 18 18 17 15 14 14 15 16 18 20 22 23 22 20 19 18 16 14 13 11 10 9 8 7 7 7 7 7 7 7 8 8 7
12 13 14 14 16 18 19 19 19 19 19 20 24 27 25 25 27 27 25 26 27 27 28 29 30 30 29 28 26 23 22 22 21 22 23 22 21 21 20 21 22 23 24 26 27 27 28 26 24 23 22 21 19 18 19 18 17 16 16 16 18 20 20 20 21 20 18 16 15 13 11 10 9 9 9 9 9 8 8 8 9 9 9 8 8
12 13 13 13 15 17 19 20 21 22 21 21 23 25 25 25 25 24 25 27 28 28 29 29 28 29 29 28 26 25 23 22 20 21 22 21 20 20 21 22 23 25 27 28 28 28 29 27 26 25 23 22 21 19 19 19 18 17 17 16 17 17 16 16 18 18 17 15 13 11 10 10 10 10 10 10 10 10 10 11 11 11 11 11 10
11 11 11 13 14 16 17 19 21 22 23 23 23 24 25 25 23 22 24 28 29 30 31 30 28 28 27 26 25 25 23 22 20 19 20 20 20 19 20 21 24 26 28 27 27 27 28 27 25 23 22 21 21 20 19 17 16 15 14 14 14 13 12 12 14 16 15 13 12 11 11 10 11 12 13 14 15 15 15 15 15 15 14 13 12
11 12 11 12 13 14 15 17 18 20 22 23 22 23 25 24 21 21 23 25 26 28 30 30 30 28 26 24 24 24 23 23 20 18 18 17 17 17 18 19 21 23 25 26 25 25 25 25 23 21 20 19 17 16 15 14 13 12 11 11 11 11 10 10 12 13 12 10 10 10 10 12 14 16 18 19 20 20 19 18 16 15 13 13 13
11 12 12 12 13 13 14 15 16 17 19 20 21 22 22 20 19 20 23 23 24 25 26 26 28 28 27 25 24 23 22 22 21 20 20 18 16 15 16 17 18 19 21 22 23 23 24 23 21 20 19 17 15 14 14 13 12 11 11 10 9 9 9 9 9 10 10 10 11 12 15 18 20 21 21 21 22 20 18 17 16 15 15 15 15
10 10 11 11 12 12 13 14 15 15 16 17 18 19 19 19 18 19 21 23 25 24 23 22 23 24 25 26 26 24 22 21 20 20 21 21 19 17 17 17 17 18 20 22 22 23 23 22 20 19 17 16 15 14 14 15 14 14 12 10 9 9 10 10 12 14 15 17 19 21 23 24 23 22 21 21 20 18 17 16 16 16 16 17 17
9 9 9 9 10 10 11 12 13 13 14 15 15 15 16 18 19 19 20 23 24 24 22 20 19 20 22 23 25 25 24 22 20 20 20 20 20 20 20 19 17 17 19 21 22 21 21 20 18 17 16 16 16 16 16 17 17 16 15 13 13 15 16 17 20 22 23 25 26 26 25 24 21 20 19 19 18 17 16 17 16 16 16 16 16
8 8 9 11 11 11 11 10 10 10 12 13 13 12 11 13 15 17 18 20 21 21 21 19 17 17 18 20 21 23 24 23 21 20 20 20 19 19 19 19 18 17 17 18 19 19 18 17 16 15 15 16 17 17 18 18 19 18 18 18 20 22 23 24 25 26 26 27 26 24 23 21 19 19 19 18 18 17 16 16 15 15 15 15 15
8 8 9 11 13 13 14 13 12 12 11 11 12 12 11 11 12 13 15 16 16 17 18 17 16 14 14 15 17 20 21 22 21 19 19 19 19 18 18 18 18 17 16 15 15 15 13 12 13 15 16 17 18 18 18 19 20 21 22 24 25 25 25 25 25 24 24 24 23 23 21 20 19 18 19 18 18 16 16 16 15 14 14 14 14
8 8 8 9 11 12 13 13 14 16 15 11 9 11 12 12 13 14 14 14 12 13 15 16 16 15 12 11 13 15 16 18 19 18 16 17 18 18 17 16 16 15 14 13 13 13 12 11 14 17 18 18 18 18 17 19 20 21 22 24 24 23 23 22 20 19 21 22 21 21 21 19 17 17 17 17 17 17 16 16 15 14 13 12 13
Wind_Direction
191 182 163 158 161 165 166 162 159 160 163 168 173 180 179 170 171 172 176 182 174 165 169 173 172 178 186 191 196 200 203 207 210 212 211 211 210 208 206 204 206 206 204 202 198 197 192 186 185 182 184 189 188 181 163 153 170 176 161 154 158 163 162 161 161 156 143 128 125 126 129 145 167 176 174 176 188 194 185 184 189 191 194 196 185
187 174 156 155 156 158 157 154 155 155 159 169 176 177 171 165 171 173 176 186 183 173 172 175 176 183 190 194 200 203 204 206 207 207 207 207 206 207 206 206 209 207 204 201 196 194 191 185 183 181 180 182 182 176 164 164 172 172 162 159 162 161 161 165 162 153 146 140 133 116 110 126 137 152 162 169 185 191 183 187 195 197 198 199 196
183 165 150 157 155 151 147 147 154 155 160 171 175 169 164 166 173 172 177 186 186 182 178 178 182 190 197 199 200 201 202 204 204 204 204 204 206 208 210 210 210 207 204 201 198 197 194 188 182 181 180 180 179 172 166 171 176 176 170 163 163 162 160 164 162 159 154 142 131 119 114 129 124 130 142 158 177 187 187 191 194 195 199 199 197
181 170 159 160 150 139 136 141 146 151 162 171 168 161 162 171 178 181 188 187 187 191 191 189 191 195 198 199 198 198 199 201 201 201 201 204 207 209 211 211 210 207 203 200 201 200 198 193 187 185 183 182 182 175 172 177 180 181 176 166 164 162 161 167 166 167 164 150 128 108 103 129 171 119 108 116 153 167 187 197 193 192 201 202 195
166 150 134 128 121 120 129 139 144 152 167 173 165 161 163 172 179 185 192 189 189 194 195 195 195 194 195 196 194 196 198 198 197 196 199 203 206 207 208 209 208 206 203 201 203 203 199 197 193 189 187 185 183 178 180 183 181 184 182 173 173 172 170 175 176 173 174 167 151 140 122 170 221 125 117 106 137 158 181 200 204 204 207 205 193
85 88 90 95 100 110 124 137 145 155 171 174 167 165 166 173 181 184 187 188 192 195 195 196 195 191 191 189 186 188 191 196 196 192 196 203 207 207 206 208 208 205 204 203 206 205 200 199 197 192 190 187 181 179 187 183 175 180 182 176 181 182 175 177 184 185 183 182 170 162 155 180 163 139 134 116 118 146 180 198 208 209 196 189 182
78 85 89 101 104 107 122 139 148 161 179 178 169 169 171 177 184 187 187 187 191 195 197 198 195 192 192 190 189 188 188 194 197 193 197 206 211 209 206 209 209 207 206 206 206 204 199 198 197 194 192 190 182 182 188 182 173 174 179 181 186 185 179 180 188 191 189 195 197 189 220 195 167 158 159 160 128 147 173 180 192 196 184 176 172
93 93 95 109 117 122 133 146 158 171 172 146 148 166 177 183 189 194 193 190 192 194 197 199 196 193 193 192 192 193 193 196 198 195 199 209 215 214 210 208 205 206 207 204 202 200 199 199 196 194 195 192 187 185 185 182 179 175 178 188 191 189 189 187 187 186 187 195 195 195 230 180 167 168 168 154 130 129 151 161 180 184 182 174 168
72 86 102 113 121 131 141 153 167 173 127 81 108 159 185 196 203 207 204 200 198 198 198 199 197 195 194 194 192 194 200 202 201 199 199 205 215 219 216 209 203 205 204 198 196 195 198 201 199 198 197 195 188 183 183 187 190 185 183 191 194 195 199 198 190 186 189 192 184 174 159 153 155 161 163 151 132 139 142 150 173 171 177 182 177
64 72 85 102 120 134 145 156 170 176 146 124 149 168 189 216 251 247 226 213 208 206 202 199 198 198 199 196 192 193 200 205 206 204 200 200 208 217 218 210 204 202 198 193 194 193 195 202 203 200 198 196 189 181 185 191 191 188 188 192 195 197 203 205 201 193 193 194 186 171 155 152 149 145 157 152 137 140 137 148 165 163 172 183 183
71 72 73 85 107 128 141 155 172 186 199 197 174 173 184 193 228 268 255 234 226 219 211 202 198 200 203 203 199 196 199 203 203 202 201 198 201 211 213 207 202 198 193 191 192 190 192 195 196 196 191 190 188 189 194 191 185 186 188 192 196 200 203 205 205 197 193 193 189 184 174 170 170 168 171 166 152 147 136 143 168 173 174 177 177
83 86 87 92 102 123 139 155 174 189 207 217 203 186 187 188 199 224 237 235 234 226 216 207 200 200 205 209 207 203 200 201 200 199 200 201 201 205 206 205 202 197 192 191 190 189 190 187 186 187 183 182 186 192 197 191 186 189 190 192 196 200 202 202 200 195 191 189 188 192 192 187 186 185 181 177 173 166 154 150 170 172 169 169 169
89 106 121 131 134 145 153 166 183 196 207 215 216 213 205 197 194 198 211 222 227 222 215 209 205 206 209 211 213 210 205 203 201 200 201 203 203 201 200 202 201 197 192 187 183 180 181 181 181 182 181 183 187 189 188 185 186 191 192 193 195 197 200 201 201 197 195 195 192 193 199 199 200 200 189 184 184 172 158 153 167 170 160 155 162
28 30 48 82 128 155 167 179 191 199 202 201 208 243 222 211 197 193 205 217 219 213 210 208 207 209 210 210 213 212 208 207 204 203 202 202 202 200 198 197 196 194 188 179 172 168 167 171 176 181 184 185 189 188 185 187 190 193 193 194 195 196 198 202 205 202 199 200 199 197 202 206 209 211 200 190 185 174 164 157 157 162 154 152 156
22 13 17 2 344 338 215 214 217 233 226 216 9 11 218 216 210 204 209 215 215 209 206 206 207 208 208 208 211 212 213 215 211 206 203 199 197 196 194 193 192 189 182 175 170 166 164 167 170 178 183 184 187 187 185 189 194 195 196 198 199 197 198 201 204 203 201 202 202 200 201 207 213 216 208 199 194 187 176 165 158 151 142 157 156
26 19 20 10 351 340 320 303 315 343 339 293 324 344 284 228 218 218 218 216 217 215 208 205 206 208 207 205 210 215 220 227 223 213 204 197 195 193 192 193 190 186 180 176 174 170 167 168 169 172 176 179 184 189 190 191 195 198 199 200 200 196 197 199 199 200 202 203 203 201 199 202 210 212 203 200 203 200 187 174 167 162 155 158 158
30 26 20 13 8 2 342 329 335 340 322 285 294 323 341 321 267 239 231 223 218 212 204 202 206 207 202 200 205 210 215 223 226 219 205 196 194 190 190 192 188 181 177 175 173 171 169 171 174 173 172 173 177 185 191 193 196 198 197 199 199 196 196 197 197 199 201 204 204 203 201 201 205 204 198 200 207 204 192 181 177 174 166 158 155
32 33 28 18 16 17 18 16 7 353 325 290 286 309 339 317 276 263 262 269 256 222 204 202 207 205 203 202 203 205 206 209 214 211 192 189 191 191 188 187 182 173 170 170 170 171 172 174 177 175 172 172 170 173 182 187 193 196 195 196 196 193 195 199 202 203 203 202 204 206 207 206 207 204 197 198 203 201 194 187 186 183 175 169 162
29 27 25 18 15 13 15 16 14 12 359 329 310 321 344 325 271 276 284 296 303 257 212 203 204 205 208 211 210 208 203 202 205 203 192 188 189 190 188 187 183 174 170 171 171 173 174 175 175 173 173 173 169 169 174 177 185 192 193 192 190 192 196 199 203 206 202 199 201 204 207 210 210 201 192 190 192 196 196 193 192 191 187 184 175
23 22 19 15 14 13 16 18 15 16 14 6 357 349 349 349 327 332 313 275 275 259 220 208 208 207 208 212 215 211 204 202 205 205 196 185 182 184 191 196 189 177 172 171 169 169 170 170 171 172 173 173 172 173 176 176 181 187 188 186 185 189 193 197 200 202 201 201 200 201 205 208 203 193 188 189 186 188 194 197 195 195 199 200 192
16 16 16 12 11 10 13 17 18 20 18 11 6 4 2 359 356 3 283 225 223 228 222 218 216 207 201 205 209 208 207 205 206 203 189 179 179 181 192 200 190 175 171 169 167 167 167 167 168 170 172 174 174 176 176 176 177 179 181 182 183 185 190 194 195 196 199 201 202 202 204 204 197 191 190 192 190 187 193 199 197 198 206 208 201
13 10 11 8 9 8 8 13 16 17 15 7 3 5 8 4 356 346 302 254 232 218 213 214 215 210 206 206 202 202 205 203 202 197 183 179 181 179 187 191 179 169 171 170 166 167 168 169 167 168 172 173 172 172 172 173 174 176 179 180 181 182 186 190 189 190 195 199 202 204 203 200 198 194 191 192 194 191 194 201 199 201 212 212 207
18 15 10 5 5 5 7 10 11 10 7 5 4 4 5 360 350 343 329 301 276 252 229 218 217 217 218 214 204 201 203 199 196 191 182 182 180 176 181 180 169 167 169 165 163 162 164 167 165 166 170 169 169 169 170 174 175 177 180 180 181 180 181 186 186 187 192 195 201 204 203 201 198 194 191 193 197 196 201 209 205 206 214 214 206
18 19 15 8 7 7 7 7 5 4 2 1 0 359 360 356 347 340 342 348 338 301 267 241 230 224 226 223 209 200 197 193 193 190 183 180 176 176 182 176 167 166 162 157 157 156 160 165 163 162 165 166 169 170 170 175 174 174 178 180 184 186 183 184 186 187 192 196 198 199 199 199 195 192 194 198 201 203 212 222 218 215 217 211 196
18 16 14 11 12 11 8 5 2 359 357 358 359 355 352 351 348 342 337 338 342 315 260 242 237 230 231 229 212 198 192 188 191 191 182 174 172 177 180 172 166 168 163 158 158 156 159 163 162 161 163 165 169 172 174 175 174 176 179 177 181 185 184 183 187 192 194 195 195 193 192 189 185 188 195 201 209 216 220 220 219 215 210 205 192
22 15 11 10 12 11 8 5 1 356 352 354 357 356 352 348 348 345 327 301 290 279 251 240 238 232 232 227 211 200 194 187 185 185 179 170 171 179 176 168 167 170 169 167 164 158 157 161 163 164 165 164 166 169 171 170 168 172 174 170 172 177 179 181 185 192 193 193 190 184 180 177 177 184 191 196 207 213 209 204 206 204 198 196 191
24 19 15 13 11 6 4 1 357 354 354 356 357 356 353 348 346 343 321 293 280 265 247 236 231 229 227 219 208 201 194 184 174 172 172 167 170 177 172 166 168 169 169 171 169 164 161 161 166 170 169 166 165 164 161 160 162 162 161 165 168 170 173 175 180 186 188 190 185 171 159 157 165 167 157 148 151 167 177 184 191 193 191 188 184
23 19 13 11 7 359 358 360 360 359 359 1 1 357 354 351 348 344 326 300 283 264 247 233 222 218 214 209 206 198 189 179 167 163 166 165 169 175 169 166 169 167 166 168 169 170 168 166 170 173 169 165 164 161 155 155 161 161 158 158 162 165 167 167 172 177 175 174 175 159 139 135 139 136 130 128 129 140 154 164 168 170 170 170 172
19 15 9 6 3 357 353 356 1 4 3 2 1 357 354 354 351 349 341 311 280 265 253 237 221 207 201 204 200 185 176 172 164 162 165 165 170 173 168 166 169 166 165 167 168 169 168 166 168 168 167 166 164 160 152 146 153 163 163 155 150 157 163 163 164 162 158 159 159 143 127 125 125 122 120 122 122 128 141 151 155 159 158 151 150
13 7 4 359 359 359 353 353 1 4 3 2 1 358 354 356 357 357 357 338 282 269 255 232 219 199 192 196 186 171 167 167 165 165 166 166 170 169 161 159 163 162 163 165 164 161 161 160 159 159 160 161 158 156 151 143 142 153 162 161 155 153 155 157 158 154 149 149 143 129 120 120 120 119 117 114 114 118 125 134 142 149 149 142 138
10 4 1 353 355 0 356 355 360 1 2 4 3 2 1 2 4 5 10 15 333 274 241 223 216 195 178 176 168 162 164 166 167 166 163 164 168 164 156 154 156 156 158 159 155 152 151 151 150 149 149 149 148 148 150 149 147 146 150 155 160 160 158 159 159 152 144 139 133 128 124 121 119 119 119 114 110 111 115 122 128 126 121 122 127
12 3 358 351 351 358 359 357 357 359 4 5 4 8 11 10 9 12 20 30 35 45 181 206 208 182 159 156 155 154 158 163 166 162 156 156 157 155 151 148 147 147 149 148 146 144 143 142 141 140 137 135 136 136 139 144 150 152 150 148 153 159 160 159 158 153 146 143 140 138 135 132 125 121 122 120 114 109 106 104 104 105 103 101 103
16 1 356 354 350 355 359 359 360 2 5 7 10 15 18 16 17 23 30 35 37 45 73 137 166 160 151 149 150 148 149 153 156 151 145 144 144 145 144 142 141 142 142 139 138 137 135 134 135 133 129 127 126 125 126 129 134 144 151 147 146 151 152 152 152 151 149 149 151 149 145 141 137 133 132 131 127 118 108 98 88 85 85 86 84
11 357 354 355 355 0 6 7 8 9 11 16 22 24 26 29 31 34 37 37 38 42 50 68 98 121 133 141 147 147 145 147 148 143 137 134 133 134 137 137 138 138 135 132 131 129 128 128 129 128 126 125 123 120 121 123 124 128 136 135 133 137 140 141 142 143 144 146 147 146 143 139 139 141 138 139 147 148 145 145 141 108 83 74 59
9 357 354 357 0 5 10 12 14 16 20 25 29 29 32 38 39 38 38 38 39 41 42 51 68 78 96 124 138 143 142 142 143 142 140 135 128 127 129 130 131 131 130 128 126 125 125 124 125 128 128 124 121 120 120 122 123 124 127 126 123 124 129 132 134 136 138 142 144 146 146 145 147 149 147 151 165 177 184 187 193 199 220 305 311
6 1 356 359 5 9 13 18 22 26 29 30 32 34 38 42 43 41 39 38 39 40 39 42 54 62 70 99 120 130 134 135 136 138 138 135 128 125 126 126 126 126 125 125 124 122 121 122 124 130 133 127 121 122 122 123 126 128 128 128 126 126 129 133 137 139 142 145 151 157 157 154 154 153 153 159 167 179 192 197 204 219 256 303 310
13 17 16 17 19 22 28 30 32 36 36 34 36 40 43 46 45 42 40 39 38 36 36 38 46 55 63 82 103 114 121 126 128 129 130 129 127 125 123 123 123 121 120 121 121 120 120 122 124 127 131 127 121 119 122 126 131 135 135 132 130 130 132 134 136 138 142 141 142 147 150 147 141 129 117 117 118 101 58 230 266 301 325 346 349
20 25 28 30 29 29 34 38 39 40 39 38 42 47 48 46 45 42 42 41 36 32 34 38 43 54 64 76 92 103 111 118 120 121 122 122 122 122 120 119 120 118 115 115 117 117 117 118 119 119 121 122 116 113 119 127 135 142 141 134 131 130 129 130 130 129 130 130 127 128 133 136 133 114 94 89 78 51 36 36 31 21 25 32 25
33 32 31 32 33 33 40 43 41 38 39 41 46 52 51 46 44 45 44 41 35 32 36 40 47 59 69 76 82 86 96 108 113 115 118 118 117 117 116 115 116 114 113 113 115 114 110 109 110 111 113 114 110 106 111 123 133 142 145 142 144 141 132 128 126 123 121 119 117 115 113 114 116 107 94 87 84 77 70 63 54 50 50 41 28
35 36 37 41 41 38 41 42 38 36 39 43 50 55 53 47 45 47 45 41 39 39 41 45 53 63 72 78 81 77 80 94 105 110 113 115 117 118 116 113 113 115 116 115 115 113 110 107 108 109 108 107 106 104 107 117 129 138 143 145 148 146 136 128 124 121 116 111 107 104 99 96 96 96 93 89 87 86 82 75 65 55 48 39 29
37 37 40 46 45 43 44 43 43 44 45 47 53 57 54 50 50 49 45 44 46 48 49 50 55 62 67 74 81 83 80 86 97 105 108 110 113 119 122 121 121 121 120 117 115 114 112 108 108 109 107 104 104 105 105 110 121 132 142 146 144 139 134 129 123 117 111 106 101 98 97 95 92 90 90 89 89 89 86 81 73 64 55 43 34
42 44 45 46 46 47 47 45 47 51 51 52 57 58 54 53 52 50 49 50 51 52 53 53 55 60 64 68 75 82 85 86 92 100 105 106 110 118 125 128 127 125 121 118 116 115 112 107 105 105 105 103 104 104 103 104 109 118 130 138 135 131 131 130 121 112 107 104 102 100 97 93 88 86 86 88 91 93 92 85 75 68 62 55 53
44 44 45 46 46 47 47 46 49 52 53 54 58 59 56 53 51 51 55 57 55 53 53 53 55 58 61 65 69 75 82 87 90 95 99 103 107 114 119 122 123 122 118 114 112 111 108 105 102 102 104 104 104 102 100 98 100 106 116 123 124 122 125 126 119 112 108 107 107 105 101 94 89 87 87 88 91 91 90 84 79 75 72 70 69
48 46 44 44 45 45 48 50 52 52 53 52 53 56 55 52 51 55 59 59 57 56 54 53 54 57 58 61 66 70 75 81 87 93 97 99 103 109 113 116 119 120 117 113 112 111 109 107 105 104 104 105 103 99 95 93 93 100 109 117 121 121 120 121 118 114 112 112 109 107 106 101 95 93 94 94 92 90 90 88 85 83 79 72 65
52 51 46 42 43 43 46 51 53 54 56 54 52 53 52 49 52 60 63 61 59 57 56 55 55 57 58 59 62 66 70 75 80 85 90 93 100 107 111 115 120 121 121 120 119 117 116 115 113 110 108 106 102 96 94 92 92 99 109 116 123 125 123 123 120 115 112 111 111 112 111 107 105 106 106 101 94 90 88 85 81 75 68 60 53
56 53 51 48 46 43 42 47 51 55 59 59 57 56 52 50 53 60 64 66 65 61 59 57 56 56 57 58 60 63 67 73 77 80 84 88 96 106 113 121 126 127 126 125 123 120 119 118 116 113 110 107 102 96 95 95 97 105 111 115 121 125 125 123 118 114 112 114 117 119 118 114 111 110 106 100 94 89 85 79 73 67 62 56 51
57 52 49 45 40 38 38 41 44 49 56 60 62 63 59 56 58 61 63 65 65 64 63 61 58 57 56 56 59 61 65 71 77 80 83 86 91 100 109 119 129 134 133 130 127 124 122 120 116 113 110 107 103 100 98 98 100 102 105 110 116 118 118 118 117 115 115 117 119 118 116 113 111 107 103 99 95 89 83 77 72 67 63 58 53
67 60 52 42 36 33 29 28 33 40 47 53 59 65 64 61 62 63 64 65 63 62 62 62 60 60 59 58 59 59 60 65 72 78 81 84 87 93 99 105 117 131 138 139 135 128 124 121 118 116 114 109 104 101 99 98 95 93 97 105 111 112 114 117 117 116 116 117 118 117 115 112 108 104 99 95 92 87 81 77 74 69 66 61 56
81 70 59 52 48 44 38 33 33 37 40 43 49 57 61 62 62 62 62 64 64 64 63 60 56 57 61 63 62 60 58 59 64 71 76 79 83 87 93 97 103 115 129 137 135 126 121 120 118 117 115 112 106 102 101 98 92 91 98 105 107 110 113 114 114 117 118 117 114 111 108 105 101 97 92 88 87 87 83 80 77 73 69 64 59
93 80 67 63 62 59 55 53 50 47 44 42 44 49 54 58 60 62 61 63 66 68 68 65 62 60 60 61 62 62 60 57 59 65 74 79 82 84 89 94 99 105 113 120 123 121 120 122 120 116 114 112 109 107 105 100 93 93 101 106 106 108 111 111 113 118 117 110 104 99 95 94 93 91 89 88 87 87 84 80 76 72 68 64 62
110 93 76 71 71 65 61 60 56 51 52 53 47 44 49 54 57 60 62 64 69 71 68 67 69 70 69 66 63 61 59 58 58 61 71 82 87 86 88 92 97 102 106 108 111 114 116 119 117 112 108 108 109 110 108 102 96 97 105 108 107 107 107 106 112 115 106 97 95 94 92 92 93 92 91 92 90 85 81 76 72 69 69 71 71